Overview Statistics Trail Chart Weather Telemetry Raw packets
 

This is the latest recevied weather packets stored in our database for station/object N1YZ. If no packets are shown the sender has not sent any weather packets the latest 10 day(s).

<< 29 30 31 32 33 34 35 >>
Time Temp. Humidity Pressure Rain* Wind** Luminosity Snow
1788458288 35° C 52% 1035.6 hPa 0 mm - 121 W/m² -
1788457987 35° C 53% 1035.8 hPa 0 mm - 165 W/m² -
1788457682 35° C 52% 1035.7 hPa 0 mm - 160 W/m² -
1788457377 34.44° C 56% 1035.9 hPa 0 mm - 111 W/m² -
1788457077 34.44° C 60% 1035.9 hPa 0 mm - 138 W/m² -
1788456773 35° C 55% 1035.9 hPa 0 mm - 235 W/m² -
1788456468 34.44° C 59% 1036 hPa 0 mm - 496 W/m² -
1788456163 34.44° C 60% 1036.2 hPa 0 mm - 69 W/m² -
1788455858 34.44° C 58% 1036.3 hPa 0 mm - 280 W/m² -
1788455553 33.89° C 63% 1036.2 hPa 0 mm - 136 W/m² -
1788455247 33.33° C 62% 1036.4 hPa 0 mm - 137 W/m² -
1788454942 33.89° C 56% 1036.3 hPa 0 mm - 81 W/m² -
1788454640 33.89° C 57% 1036.4 hPa 0 mm - 131 W/m² -
1788454335 34.44° C 58% 1036.4 hPa 0 mm - 98 W/m² -
1788454029 34.44° C 57% 1036.7 hPa 0 mm - 98 W/m² -
1788453726 33.89° C 59% 1036.6 hPa 0 mm - 191 W/m² -
1788453425 33.89° C 61% 1036.5 hPa 0 mm - 533 W/m² -
1788453122 33.33° C 64% 1036.6 hPa 0 mm - 173 W/m² -
1788452817 32.78° C 64% 1036.7 hPa 0 mm - 116 W/m² -
1788452513 32.78° C 64% 1036.9 hPa 0 mm - 76 W/m² -
1788452209 32.78° C 67% 1036.8 hPa 0 mm - 70 W/m² -
1788451904 32.78° C 66% 1036.9 hPa 0 mm - 99 W/m² -
1788451599 33.33° C 64% 1037 hPa 0 mm - 77 W/m² -
1788451293 33.33° C 64% 1037.1 hPa 0 mm - 75 W/m² -
1788450992 33.33° C 61% 1037.2 hPa 0 mm - 69 W/m² -

* Rain latest hour (hover to see other rain measurements)
** Current wind speed in m/s (hover to see current wind gust speed)